Location: Alpha Ridge Park
(39.3209°N, 76.9128°W)
Time: 07:31:03
(UTC-04:00)

AO-92 - Visible Passes

Search period start: 30 June 2022 00:00
Search period end: 10 July 2022 00:00
Orbit: 473 x 481 km, 97.4° (Epoch: 29 June)

Date Brightness Start Highest point End Pass type
(mag) Time Alt. Az. Time Alt. Az. Time Alt. Az.
30 Jun ? 22:28:34 20° E 22:29:02 21° ENE 22:31:47 10° NNE visible
01 Jul ? 00:02:47 20° W 00:02:47 20° W 00:04:57 10° NW visible
01 Jul ? 22:02:07 10° ENE 22:02:36 10° ENE 22:03:06 10° ENE visible
01 Jul ? 23:35:49 43° WNW 23:35:49 43° WNW 23:38:53 10° NNW visible
02 Jul ? 23:08:51 71° NE 23:08:51 71° NE 23:12:16 10° N visible
03 Jul ? 22:41:53 30° E 22:42:06 30° ENE 22:45:16 10° N visible
04 Jul ? 00:16:05 14° W 00:16:05 14° W 00:17:24 10° WNW visible
04 Jul ? 22:14:55 14° E 22:15:35 15° ENE 22:17:37 10° NNE visible
04 Jul ? 23:49:07 29° W 23:49:07 29° W 23:51:46 10° NNW visible
05 Jul ? 23:22:08 67° NW 23:22:08 67° NW 23:25:22 10° NNW visible
06 Jul ? 22:55:09 45° ENE 22:55:09 45° ENE 22:58:32 10° N visible
07 Jul ? 22:28:09 20° E 22:28:31 21° ENE 22:31:14 10° NNE visible
08 Jul ? 00:02:21 20° W 00:02:21 20° W 00:04:27 10° NW visible
08 Jul ? 22:01:47 10° ENE 22:02:01 10° ENE 22:02:14 10° ENE visible
08 Jul ? 23:35:21 43° WNW 23:35:21 43° WNW 23:38:17 10° NNW visible
09 Jul ? 23:08:20 66° NE 23:08:20 66° NE 23:11:38 10° N visible
